Regional Weather Roundup
Issued by NWS

Home | Current Version | Previous Version | Graphics & Text | Print | Product List | Glossary On
Versions: 1 2 3 4 5 6 7 8 9 10 11 12 13 14 15 16 17 18 19 20 21 22 23 24 25 26 27 28 29 30 31 32 33 34 35 36 37 38 39 40 41 42 43 44 45 46 47 48 49 50
000
ASUS43 KFSD 271110
RWRSD

WEATHER ROUNDUP FOR SOUTH DAKOTA
NATIONAL WEATHER SERVICE SIOUX FALLS SD
600 AM CDT FRI MAR 27 2015

NOTE: "FAIR" INDICATES FEW OR NO CLOUDS BELOW 12,000 FEET WITH NO
SIGNIFICANT WEATHER AND/OR OBSTRUCTIONS TO VISIBILITY.


SDZ001>005-009-010-012>017-271200-
NORTHWEST AND NORTH CENTRAL SOUTH DAKOTA

CITY           SKY/WX    TMP DP  RH WIND       PRES   REMARKS
BUFFALO          N/A     33  30  88 S12       29.97F WCI  24
FAITH            N/A     32  26  78 S15       30.10F WCI  22
MOBRIDGE       CLOUDY    26  13  57 S16       30.18F WCI  14
$$

SDZ012>016-024>037-041>051-057-063-072>074-271200-
SOUTHWEST AND SOUTH CENTRAL SOUTH DAKOTA

CITY           SKY/WX    TMP DP  RH WIND       PRES   REMARKS
RAPID CTY ARPT CLOUDY    33  28  81 SE7       30.06F WCI  27
PIERRE         CLOUDY    26  17  68 SE12      30.21F WCI  16
CUSTER         CLOUDY    34  31  88 W12       30.05S WCI  25
ELLSWORTH AFB  CLOUDY    35  30  82 S7        30.05F WCI  29
PHILIP         CLOUDY    35  26  69 SE9       30.15F WCI  28
PINE RIDGE     CLOUDY    37  32  82 S9        30.10F
SPEARFISH      CLOUDY    39  36  87 W3        30.04S
WINNER         CLOUDY    29  19  66 SE9       30.23R WCI  20
$$

SDZ004>011-016>023-039-040-271200-
NORTHEAST SOUTH DAKOTA

CITY           SKY/WX    TMP DP  RH WIND       PRES   REMARKS
ABERDEEN       PTCLDY    15  11  83 SW3       30.28S
WATERTOWN      CLEAR     14   9  80 CALM      30.23F
SISSETON         N/A     15  11  83 NW5       30.27S WCI   8
$$

SDZ017-020-022-023-036>040-048>070-271200-
SOUTHEAST SOUTH DAKOTA

CITY           SKY/WX    TMP DP  RH WIND       PRES   REMARKS
SIOUX FALLS    PTCLDY    15   9  76 CALM      30.26R
HURON          CLEAR     11   8  88 CALM      30.29R
CHAMBERLAIN    CLOUDY    21  16  82 SE6       30.26S WCI  13
MITCHELL       CLEAR     14  11  87 W5        30.31R WCI   6
YANKTON        CLEAR     18  10  73 NW7       30.30R WCI   8
$$

ABBREVIATIONS USED IN REMARKS
   TC - TEMPERATURE IN CELSIUS
  WCI - WIND CHILL INDEX
   HX - HEAT INDEX
  VSB - VISIBILITY




USA.gov is the U.S. government's official web portal to all federal, state and local government web resources and services.